Find Starlink 31560

NORAD ID: 59361 Int'l Des: 2024-060 Owner: SPXS Country: US Constellation: starlink operational
LEOCIRCULAR

現在のビュー

3D地球を読み込み中...

About Starlink 31560

Starlink 31560 (NORAD 59361) is a starlink constellation satellite (v2 mini) launched Mar 31, 2024 by SPXS of US. It operates in LEO, CIRCULAR orbit with a mass of 730.00 kg.

Starlink 31560について

説明を読み込み中...

次回通過

Passes for default location (London). Set your location on the main map for personalized predictions.

高度履歴

Loading altitude history...

軌道要素

1 59361U 24060P 26193.52942473 .00000390 00000-0 23678-4 0 9995
2 59361 43.0007 274.9806 0001226 242.4057 117.6671 15.27597560129155
Epoch: Jul 12, 2026 • Age: 8 hours

現在のステータス

高度 484.6 km
遠地点 / 近地点 N/A
速度 7.63 km/s
衛星直下点 33.66°N, 160.47°E
打ち上げ日 Mar 31, 2024
運用期間 2.2 years
タイプ internet

技術仕様

分類 Payload
質量 730.00 kg
乾燥質量 700.00 kg
総質量 730.00 kg
長さ 0.30 m
直径 4.10 m
スパン 29.00 m
形状 Box + pan
製造者 SPXS
バスタイプ Starlink V2M
フェーズステータス In Orbit
所有者/国 SPXS/US

Most Searched